TimePDT,TemperatureF,Dew PointF,Humidity,Sea Level PressureIn,VisibilityMPH,Wind Direction,Wind SpeedMPH,Gust SpeedMPH,PrecipitationIn,Events,Conditions,WindDirDegrees,DateUTC
12:53 AM,28.0,25.0,88,30.43,10.0,North,4.6,-,N/A,,Clear,360,2013-03-10 08:53:00
1:53 AM,27.0,24.1,89,30.44,10.0,NNE,5.8,-,N/A,,Clear,20,2013-03-10 09:53:00
3:53 AM,26.1,24.1,92,30.42,10.0,North,4.6,-,N/A,,Clear,350,2013-03-10 10:53:00
5:53 AM,26.1,24.1,92,30.44,10.0,Calm,Calm,-,N/A,,Clear,0,2013-03-10 12:53:00
6:53 AM,27.0,24.1,89,30.43,10.0,Calm,Calm,-,N/A,,Clear,0,2013-03-10 13:53:00
7:53 AM,28.0,26.1,92,30.44,10.0,NNW,3.5,-,N/A,,Clear,340,2013-03-10 14:53:00
8:53 AM,37.9,32.0,79,30.42,10.0,Calm,Calm,-,N/A,,Clear,0,2013-03-10 15:53:00
9:53 AM,45.0,32.0,60,30.40,10.0,Calm,Calm,-,N/A,,Clear,0,2013-03-10 16:53:00
10:53 AM,50.0,32.0,50,30.38,10.0,Calm,Calm,-,N/A,,Mostly Cloudy,0,2013-03-10 17:53:00
11:53 AM,54.0,32.0,43,30.36,10.0,South,5.8,-,N/A,,Overcast,180,2013-03-10 18:53:00
12:53 PM,55.0,32.0,42,30.34,10.0,SW,12.7,-,N/A,,Overcast,220,2013-03-10 19:53:00
1:53 PM,55.0,33.1,43,30.31,10.0,West,3.5,-,N/A,,Overcast,270,2013-03-10 20:53:00
2:53 PM,54.0,36.0,51,30.30,10.0,West,4.6,-,0.00,Rain,Light Rain,260,2013-03-10 21:53:00
3:53 PM,55.0,37.0,51,30.31,10.0,Calm,Calm,-,0.00,Rain,Light Rain,0,2013-03-10 22:53:00
4:53 PM,55.0,39.0,55,30.30,10.0,East,3.5,-,0.00,,Overcast,90,2013-03-10 23:53:00
5:53 PM,54.0,42.1,64,30.29,10.0,East,5.8,-,N/A,,Mostly Cloudy,90,2013-03-11 00:53:00
6:53 PM,53.1,39.9,61,30.28,10.0,South,4.6,-,N/A,,Partly Cloudy,180,2013-03-11 01:53:00
7:53 PM,46.9,39.0,74,30.30,10.0,ESE,5.8,-,N/A,,Scattered Clouds,120,2013-03-11 02:53:00
8:53 PM,46.0,39.0,76,30.29,10.0,SE,6.9,-,N/A,,Mostly Cloudy,130,2013-03-11 03:53:00
9:53 PM,42.1,37.0,82,30.30,10.0,Calm,Calm,-,N/A,,Scattered Clouds,0,2013-03-11 04:53:00
10:53 PM,36.0,34.0,93,30.32,10.0,North,5.8,-,N/A,,Clear,10,2013-03-11 05:53:00
11:53 PM,35.1,33.1,92,30.31,10.0,Calm,Calm,-,N/A,,Clear,0,2013-03-11 06:53:00
12:53 AM,34.0,32.0,92,30.31,10.0,Calm,Calm,-,N/A,,Clear,0,2013-03-11 07:53:00